When you browse on this site, cookies collect data to enhance your experience and personalize the content and advertising you see.
Visit our Privacy Policy to learn more. By continuing to use the site, you agree to this use of cookies and data.
  • In Slovakia
  • List of Countries
  • For 7 days
  • Water Temperature
  • Weather Map
  • Weather Widgets
  • user-avatar
    Login

    Hourly Weather Flores

    Today, 14 October, Monday

    Time Temperature Precipitation Wind Pressure Humidity
    00:00 +21°C° 0 mm 1 mps 701 mmHg 69%
    01:00 +21°C° 0 mm 1 mps 701 mmHg 66%
    02:00 +21°C° 0 mm 1 mps 700 mmHg 64%
    03:00 +21°C° 0 mm 1 mps 701 mmHg 65%
    04:00 +21°C° 0 mm 1 mps 701 mmHg 66%
    05:00 +21°C° 0 mm 1 mps 701 mmHg 67%
    06:00 +23°C° 0 mm 1 mps 702 mmHg 57%
    07:00 +26°C° 0 mm 1 mps 703 mmHg 47%
    08:00 +30°C° 0 mm 1 mps 704 mmHg 36%
    09:00 +30°C° 0 mm 1 mps 704 mmHg 36%
    10:00 +31°C° 0 mm 2 mps 704 mmHg 36%
    11:00 +33°C° 0 mm 3 mps 704 mmHg 35%
    12:00 +33°C° 0 mm 3 mps 703 mmHg 36%
    13:00 +33°C° 0 mm 3 mps 702 mmHg 37%
    14:00 +33°C° 0 mm 3 mps 702 mmHg 37%
    15:00 +30°C° 0 mm 2 mps 701 mmHg 43%
    16:00 +29°C° 0 mm 2 mps 701 mmHg 49%
    17:00 +27°C° 0 mm 2 mps 701 mmHg 54%
    18:00 +25°C° 0 mm 1 mps 701 mmHg 65%
    19:00 +23°C° 0 mm 1 mps 701 mmHg 75%
    20:00 +21°C° 0 mm 1 mps 701 mmHg 85%
    21:00 +21°C° 0 mm 1 mps 701 mmHg 83%
    22:00 +21°C° 0 mm 1 mps 701 mmHg 81%
    23:00 +20°C° 0 mm 1 mps 702 mmHg 78%

    Tomorrow, 15 October, Tuesday

    Time Temperature Precipitation Wind Pressure Humidity
    00:00 +20°C° 0 mm 1 mps 701 mmHg 80%
    01:00 +20°C° 0 mm 1 mps 701 mmHg 81%
    02:00 +20°C° 0 mm 1 mps 700 mmHg 82%
    03:00 +20°C° 0 mm 1 mps 700 mmHg 83%
    04:00 +20°C° 0 mm 1 mps 701 mmHg 84%
    05:00 +19°C° 0 mm 1 mps 701 mmHg 85%
    06:00 +22°C° 0 mm 1 mps 702 mmHg 72%
    07:00 +25°C° 0 mm 1 mps 703 mmHg 58%
    08:00 +28°C° 0 mm 1 mps 703 mmHg 45%
    09:00 +29°C° 0 mm 1 mps 703 mmHg 43%
    10:00 +30°C° 0 mm 2 mps 703 mmHg 40%
    11:00 +31°C° 0 mm 3 mps 703 mmHg 38%
    12:00 +31°C° 0 mm 3 mps 703 mmHg 39%
    13:00 +31°C° 0 mm 2 mps 702 mmHg 41%
    14:00 +31°C° 0 mm 2 mps 702 mmHg 43%
    15:00 +29°C° 0 mm 2 mps 701 mmHg 48%
    16:00 +28°C° 0 mm 2 mps 701 mmHg 54%
    17:00 +26°C° 0 mm 1 mps 700 mmHg 59%
    18:00 +25°C° 0 mm 1 mps 701 mmHg 68%
    19:00 +23°C° 0 mm 1 mps 701 mmHg 77%
    20:00 +21°C° 0 mm 1 mps 701 mmHg 86%
    21:00 +21°C° 0 mm 1 mps 701 mmHg 87%
    22:00 +21°C° 0 mm 1 mps 701 mmHg 88%
    23:00 +20°C° 0 mm 1 mps 702 mmHg 89%

    Day after tomorrow, 16 October, Wednesday

    Time Temperature Precipitation Wind Pressure Humidity
    00:00 +20°C° 0 mm 1 mps 701 mmHg 89%
    01:00 +20°C° 0 mm 1 mps 701 mmHg 90%
    02:00 +20°C° 0 mm 1 mps 700 mmHg 90%
    03:00 +20°C° 0 mm 1 mps 700 mmHg 89%
    04:00 +20°C° 0 mm 1 mps 701 mmHg 88%
    05:00 +19°C° 0 mm 1 mps 701 mmHg 88%
    06:00 +22°C° 0 mm 1 mps 702 mmHg 73%
    07:00 +25°C° 0 mm 1 mps 703 mmHg 59%
    08:00 +28°C° 0 mm 1 mps 703 mmHg 44%
    09:00 +30°C° 0 mm 1 mps 703 mmHg 41%
    10:00 +31°C° 0 mm 2 mps 703 mmHg 39%
    11:00 +32°C° 0 mm 2 mps 703 mmHg 36%
    12:00 +31°C° 0 mm 2 mps 703 mmHg 39%
    13:00 +31°C° 0 mm 2 mps 702 mmHg 41%
    14:00 +31°C° 0 mm 2 mps 701 mmHg 44%
    15:00 +29°C° 0 mm 2 mps 701 mmHg 51%
    16:00 +27°C° 0 mm 2 mps 701 mmHg 58%
    17:00 +26°C° 0 mm 1 mps 701 mmHg 65%
    18:00 +24°C° 0 mm 1 mps 701 mmHg 73%
    19:00 +23°C° 0 mm 2 mps 701 mmHg 81%
    20:00 +21°C° 0 mm 2 mps 701 mmHg 90%
    21:00 +20°C° 0 mm 2 mps 701 mmHg 91%
    22:00 +21°C° 0 mm 1 mps 701 mmHg 92%
    23:00 +20°C° 0 mm 1 mps 701 mmHg 93%

    17 October, Thursday

    Time Temperature Precipitation Wind Pressure Humidity
    00:00 +20°C° 0 mm 1 mps 701 mmHg 92%
    01:00 +20°C° 0 mm 1 mps 701 mmHg 90%
    02:00 +20°C° 0 mm 1 mps 700 mmHg 89%
    03:00 +20°C° 0 mm 1 mps 700 mmHg 85%
    04:00 +19°C° 0 mm 1 mps 700 mmHg 82%
    05:00 +19°C° 0 mm 1 mps 700 mmHg 78%
    06:00 +23°C° 0 mm 1 mps 701 mmHg 64%
    07:00 +26°C° 0 mm 1 mps 702 mmHg 49%
    08:00 +29°C° 0 mm 1 mps 704 mmHg 35%
    09:00 +30°C° 0 mm 1 mps 703 mmHg 33%
    10:00 +31°C° 0 mm 2 mps 703 mmHg 31%
    11:00 +34°C° 0 mm 2 mps 703 mmHg 29%
    12:00 +32°C° 0 mm 2 mps 703 mmHg 31%
    13:00 +32°C° 0 mm 2 mps 702 mmHg 33%
    14:00 +33°C° 0 mm 3 mps 702 mmHg 36%
    15:00 +30°C° 0 mm 2 mps 701 mmHg 42%
    16:00 +29°C° 0 mm 2 mps 701 mmHg 48%
    17:00 +27°C° 0 mm 1 mps 701 mmHg 55%
    18:00 +25°C° 0 mm 1 mps 701 mmHg 64%
    19:00 +23°C° 0 mm 1 mps 701 mmHg 74%
    20:00 +21°C° 0 mm 1 mps 701 mmHg 83%
    21:00 +21°C° 0 mm 1 mps 701 mmHg 81%
    22:00 +21°C° 0 mm 1 mps 701 mmHg 80%
    23:00 +21°C° 0 mm 1 mps 701 mmHg 78%

    18 October, Friday

    Time Temperature Precipitation Wind Pressure Humidity
    00:00 +21°C° 0 mm 1 mps 701 mmHg 76%
    01:00 +20°C° 0 mm 1 mps 701 mmHg 74%
    02:00 +20°C° 0 mm 1 mps 700 mmHg 72%
    03:00 +20°C° 0 mm 1 mps 700 mmHg 68%
    04:00 +20°C° 0 mm 1 mps 700 mmHg 65%
    05:00 +20°C° 0 mm 1 mps 700 mmHg 62%
    06:00 +23°C° 0 mm 1 mps 701 mmHg 53%
    07:00 +26°C° 0 mm 1 mps 702 mmHg 45%
    08:00 +28°C° 0 mm 1 mps 703 mmHg 37%
    09:00 +30°C° 0 mm 1 mps 703 mmHg 36%
    10:00 +31°C° 0 mm 2 mps 703 mmHg 36%
    11:00 +32°C° 0 mm 2 mps 703 mmHg 35%
    12:00 +32°C° 0 mm 2 mps 703 mmHg 38%
    13:00 +32°C° 0 mm 2 mps 702 mmHg 40%
    14:00 +31°C° 0 mm 3 mps 701 mmHg 42%
    15:00 +30°C° 0 mm 2 mps 701 mmHg 46%
    16:00 +29°C° 0 mm 2 mps 701 mmHg 50%
    17:00 +28°C° 0 mm 1 mps 701 mmHg 54%
    18:00 +26°C° 0 mm 1 mps 701 mmHg 61%
    19:00 +24°C° 0 mm 1 mps 701 mmHg 69%
    20:00 +22°C° 0 mm 1 mps 701 mmHg 76%
    21:00 +22°C° 0 mm 1 mps 701 mmHg 76%
    22:00 +22°C° 0 mm 1 mps 701 mmHg 75%
    23:00 +22°C° 0 mm 1 mps 702 mmHg 74%

    19 October, Saturday

    Time Temperature Precipitation Wind Pressure Humidity
    00:00 +22°C° 0 mm 1 mps 701 mmHg 73%
    01:00 +22°C° 0 mm 1 mps 701 mmHg 73%
    02:00 +22°C° 0 mm 1 mps 701 mmHg 72%
    03:00 +21°C° 0 mm 1 mps 701 mmHg 72%
    04:00 +21°C° 0 mm 1 mps 701 mmHg 72%
    05:00 +21°C° 0 mm 1 mps 701 mmHg 73%
    06:00 +24°C° 0 mm 1 mps 702 mmHg 63%
    07:00 +26°C° 0 mm 1 mps 702 mmHg 54%
    08:00 +29°C° 0 mm 1 mps 703 mmHg 45%
    09:00 +30°C° 0 mm 2 mps 704 mmHg 41%
    10:00 +31°C° 0 mm 3 mps 704 mmHg 37%
    11:00 +33°C° 0 mm 3 mps 704 mmHg 33%
    12:00 +33°C° 0 mm 3 mps 703 mmHg 34%
    13:00 +33°C° 0 mm 3 mps 702 mmHg 36%
    14:00 +32°C° 0 mm 2 mps 702 mmHg 37%
    15:00 +31°C° 0 mm 2 mps 701 mmHg 42%
    16:00 +29°C° 0 mm 2 mps 701 mmHg 46%
    17:00 +28°C° 0 mm 1 mps 701 mmHg 51%
    18:00 +26°C° 0 mm 1 mps 701 mmHg 60%
    19:00 +24°C° 0 mm 1 mps 701 mmHg 69%
    20:00 +23°C° 0 mm 1 mps 701 mmHg 77%
    21:00 +22°C° 0 mm 1 mps 702 mmHg 78%
    22:00 +22°C° 0 mm 1 mps 702 mmHg 80%
    23:00 +22°C° 0 mm 1 mps 702 mmHg 81%
    Show more